SL-16 DEB, 22342

Orbit data source: Space-Track

SL-16 DEB, 22342 is space debris in LEO originally from a launch on Fri, 25 Dec 1992 UTC launched from the Tyuratam Missile And Space Complex (TTMTR). Debris objects in space refer to the collection of defunct objects orbiting the Earth. Examples of debris include non-operational satellites, rocket bodies, and fragments generated from explosions, collisions, or faulty payload assembly.

Loading next visibility...
Identifier
22342, 1992-093AF
Orbit
LEO
Country
Flag of CISCIS
Related business
Manufacturer
Unknown
Mission
Spacecraft
Bus & Motor
Unknown
Mass
Unknown
Launch date (UTC)
1992-12-25 (33 years ago)
Launch vehicle
Unknown
Launch site
Tyuratam Missile And Space Complex (TTMTR)
Object type
Payload
Rocket body
Debris
Shape & HBR
Unknown shape, 0.2 m
Radar Cross Section
Small (<0.1 m²)

Expand to show TLE details & history
Last TLE update: 16 hours ago

TLE from 16 hours ago
0 SL-16 DEB
1 22342U 92093AF  25352.19682322  .00000242  00000-0  20426-3 0  9991
2 22342  70.6999  36.8343 0118965 343.7182  72.9899 13.94658522672813
Epoch: 2025-12-18T04:43Z
TLE epoch observation values (Epoch: 2025-12-18T04:43:25.526Z)
Latitude
53.29313°
Longitude
-93.22254°
Altitude
896.074 km
Speed
7.422 km/s
True Right ascension
04h 18m 45s
True Declination
53° 07' 53"
Sunlit
Object was in full shadow at epoch
Visualization orbit readout
Latitude
Unknown
Longitude
Unknown
Altitude
Unknown
Speed
Unknown
Apparent Right ascension
Unknown
Apparent Declination
Unknown
Sunlit
N/A
Visualization observer readout
Local Sidereal Time
19:51:33
Azimuth
Unknown
Elevation
Unknown
Doppler factor
Unknown
Orbital elements
Apogee altitude
997.032 km
Perigee altitude
823.617 km
Semi-major axis
7,288.462 km
Eccentricity
0.0119
Inclination
70.6999°
RAAN
36.8343°
Arg. of periapsis
343.7182°
True anomaly
74.29908°
Mean anomaly
72.9899°
Eccentric anomaly
73.64393°
Mean motion
3.4881 °/min
Orbital period
103.21 mins
BSTAR
0.00020426
Loading maneuver chart data...
Computing Atmospheric mass density...
Loading historical data...
Loading historical data...
Loading historical data...
Loading historical data...
Loading historical data...
Loading historical data...
Loading historical data...

Documentation

Showing up to 5 results
|